Location: Shepherdstown, WV
(39.4326°N, 77.8042°W)
Time: 10:39:33
(UTC-04:00)

Tiangong - Pass Details

Date: 28 June 2021
Orbit: 374 x 386 km, 41.5° (Epoch: 25 July)

Event Time Altitude Azimuth Distance (km) Brightness Sun altitude
Exits shadow 03:17:01 55° 16° (NNE) 458 1.7 -21.1°
Drops below altitude 10° 03:19:51 11° 81° (E) 1,344 4.3 -20.8°
Sets 03:22:03 0° 87° (E) 2,240 5.4 -20.6°
